RYR99LW EPKK-EPSC

Flight info

Callsign RYR99LW
Flight time 0h 50m
Altitude 28000
Route LUMVE L619 DENKO L996 XERBI DCT FORFE DCT ZAWIK
Aircraft B38M/M-SDE1FGHILORVWXY/HB1

Departure

Time 2026-05-05 11:11
Airport Kraków John Paul II International Airport (EPKK)

Arrival

Time 2026-05-05 12:02
Airport Solidarity Szczecin–Goleniów Airport (EPSC)
Time Latitude Longitude Altitude Speed Heading
2026-05-05 10:38 50.07362 19.80317 803 ft 0 kts 168°
2026-05-05 11:00 50.07363 19.80317 803 ft 1 kts 168°
2026-05-05 11:00 50.07377 19.80312 803 ft 2 kts 168°
2026-05-05 11:01 50.07391 19.80308 803 ft 2 kts 168°
2026-05-05 11:01 50.07405 19.80303 803 ft 0 kts 168°
2026-05-05 11:01 50.07417 19.80298 803 ft 2 kts 146°
2026-05-05 11:01 50.07428 19.80281 803 ft 2 kts 121°
2026-05-05 11:02 50.07433 19.80260 803 ft 2 kts 95°
2026-05-05 11:02 50.07433 19.80245 803 ft 1 kts 79°
2026-05-05 11:02 50.07431 19.80235 803 ft 0 kts 77°
2026-05-05 11:07 50.07432 19.80241 803 ft 2 kts 77°
2026-05-05 11:07 50.07438 19.80286 803 ft 6 kts 79°
2026-05-05 11:07 50.07451 19.80351 803 ft 5 kts 53°
2026-05-05 11:08 50.07505 19.80390 803 ft 11 kts 18°
2026-05-05 11:08 50.07579 19.80417 804 ft 10 kts 357°
2026-05-05 11:08 50.07647 19.80397 804 ft 10 kts 348°
2026-05-05 11:08 50.07716 19.80375 804 ft 11 kts 347°
2026-05-05 11:09 50.07794 19.80347 804 ft 11 kts 347°
2026-05-05 11:09 50.07840 19.80333 804 ft 0 kts 348°
2026-05-05 11:10 50.07844 19.80331 804 ft 2 kts 348°
2026-05-05 11:10 50.07887 19.80317 804 ft 9 kts 348°
2026-05-05 11:10 50.07967 19.80288 804 ft 14 kts 346°
2026-05-05 11:10 50.08012 19.80221 804 ft 8 kts 260°
2026-05-05 11:11 50.07954 19.79815 804 ft 76 kts 258°
2026-05-05 11:11 50.07801 19.78676 804 ft 136 kts 257°
2026-05-05 11:11 50.07589 19.77035 1045 ft 161 kts 257°
2026-05-05 11:11 50.07365 19.75342 1610 ft 166 kts 253°
2026-05-05 11:12 50.07069 19.73525 2123 ft 178 kts 253°
2026-05-05 11:12 50.06772 19.71619 2611 ft 189 kts 253°
2026-05-05 11:12 50.06478 19.69500 2970 ft 209 kts 255°
2026-05-05 11:12 50.06178 19.67200 3438 ft 225 kts 255°
2026-05-05 11:13 50.05854 19.64755 3967 ft 239 kts 255°
2026-05-05 11:13 50.05503 19.62181 4476 ft 252 kts 254°
2026-05-05 11:13 50.05115 19.59443 4996 ft 264 kts 254°
2026-05-05 11:13 50.04720 19.56663 5769 ft 265 kts 254°
2026-05-05 11:14 50.04328 19.53891 6548 ft 267 kts 254°
2026-05-05 11:14 50.03931 19.51092 7353 ft 268 kts 255°
2026-05-05 11:14 50.03533 19.48261 8160 ft 270 kts 257°
2026-05-05 11:14 50.03530 19.45351 8940 ft 279 kts 282°
2026-05-05 11:15 50.04482 19.42702 9746 ft 291 kts 311°
2026-05-05 11:15 50.06077 19.40700 10395 ft 303 kts 321°
2026-05-05 11:15 50.07871 19.38812 10836 ft 320 kts 323°
2026-05-05 11:15 50.09758 19.36849 11240 ft 336 kts 323°
2026-05-05 11:16 50.11751 19.34731 11714 ft 350 kts 321°
2026-05-05 11:16 50.13762 19.32555 12477 ft 354 kts 321°
2026-05-05 11:16 50.15773 19.30356 13246 ft 358 kts 321°
2026-05-05 11:16 50.17826 19.28100 14022 ft 362 kts 321°
2026-05-05 11:17 50.19883 19.25832 14816 ft 365 kts 321°
2026-05-05 11:17 50.21956 19.23543 15577 ft 369 kts 321°
2026-05-05 11:17 50.24065 19.21213 16346 ft 373 kts 321°
2026-05-05 11:17 50.26178 19.18877 17102 ft 375 kts 321°
2026-05-05 11:18 50.28304 19.16523 17803 ft 379 kts 321°
2026-05-05 11:18 50.30446 19.14150 18512 ft 382 kts 321°
2026-05-05 11:18 50.32610 19.11748 19215 ft 384 kts 321°
2026-05-05 11:18 50.34794 19.09322 19865 ft 388 kts 322°
2026-05-05 11:19 50.37014 19.06853 20548 ft 390 kts 322°
2026-05-05 11:19 50.39240 19.04376 21158 ft 394 kts 322°
2026-05-05 11:19 50.41465 19.01895 21787 ft 396 kts 322°
2026-05-05 11:19 50.43715 18.99385 22389 ft 400 kts 322°
2026-05-05 11:20 50.45978 18.96857 22976 ft 402 kts 322°
2026-05-05 11:20 50.48257 18.94309 23640 ft 403 kts 322°
2026-05-05 11:20 50.50525 18.91771 24526 ft 399 kts 322°
2026-05-05 11:20 50.52756 18.89271 25240 ft 397 kts 322°
2026-05-05 11:21 50.55014 18.86736 25934 ft 396 kts 322°
2026-05-05 11:21 50.57254 18.84218 26598 ft 396 kts 322°
2026-05-05 11:21 50.59479 18.81716 27162 ft 397 kts 322°
2026-05-05 11:21 50.61721 18.79191 27621 ft 400 kts 322°
2026-05-05 11:22 50.63994 18.76626 27858 ft 402 kts 322°
2026-05-05 11:22 50.66249 18.74080 27857 ft 395 kts 322°
2026-05-05 11:22 50.68477 18.71559 27860 ft 391 kts 322°
2026-05-05 11:22 50.70681 18.69062 27858 ft 393 kts 322°
2026-05-05 11:23 50.72880 18.66566 27857 ft 393 kts 322°
2026-05-05 11:23 50.75103 18.64040 27855 ft 393 kts 322°
2026-05-05 11:23 50.77319 18.61521 27853 ft 392 kts 322°
2026-05-05 11:23 50.79519 18.59020 27852 ft 392 kts 322°
2026-05-05 11:24 50.81740 18.56492 27847 ft 392 kts 322°
2026-05-05 11:24 50.83940 18.53983 27846 ft 391 kts 322°
2026-05-05 11:24 50.86143 18.51467 27844 ft 391 kts 322°
2026-05-05 11:24 50.88354 18.48941 27847 ft 391 kts 322°
2026-05-05 11:25 50.90555 18.46426 27840 ft 391 kts 322°
2026-05-05 11:25 50.92772 18.43886 27843 ft 391 kts 322°
2026-05-05 11:25 50.94955 18.41383 27841 ft 392 kts 322°
2026-05-05 11:25 50.97170 18.38838 27839 ft 392 kts 322°
2026-05-05 11:26 50.99394 18.36279 27837 ft 392 kts 322°
2026-05-05 11:26 51.01587 18.33753 27840 ft 392 kts 321°
2026-05-05 11:26 51.03789 18.31216 27835 ft 392 kts 321°
2026-05-05 11:26 51.05999 18.28665 27829 ft 391 kts 321°
2026-05-05 11:27 51.08198 18.26125 27825 ft 391 kts 321°
2026-05-05 11:27 51.10396 18.23582 27829 ft 391 kts 321°
2026-05-05 11:27 51.12577 18.21057 27830 ft 390 kts 321°
2026-05-05 11:27 51.14785 18.18499 27830 ft 389 kts 321°
2026-05-05 11:28 51.16965 18.15968 27828 ft 389 kts 321°
2026-05-05 11:28 51.19140 18.13441 27825 ft 389 kts 321°
2026-05-05 11:28 51.21302 18.10927 27823 ft 388 kts 321°
2026-05-05 11:28 51.23480 18.08389 27825 ft 389 kts 321°
2026-05-05 11:29 51.25679 18.05821 27826 ft 389 kts 321°
2026-05-05 11:29 51.27830 18.03309 27824 ft 389 kts 321°
2026-05-05 11:29 51.30027 18.00737 27823 ft 389 kts 320°
2026-05-05 11:29 51.32217 17.98171 27822 ft 390 kts 321°
2026-05-05 11:30 51.34397 17.95618 27822 ft 390 kts 320°
2026-05-05 11:30 51.36569 17.93072 27822 ft 390 kts 320°
2026-05-05 11:30 51.38730 17.90536 27822 ft 388 kts 320°
2026-05-05 11:30 51.40932 17.87947 27820 ft 388 kts 320°
2026-05-05 11:31 51.43076 17.85420 27820 ft 388 kts 320°
2026-05-05 11:31 51.45253 17.82849 27818 ft 388 kts 321°
2026-05-05 11:31 51.47440 17.80266 27820 ft 388 kts 320°
2026-05-05 11:31 51.49600 17.77713 27817 ft 388 kts 320°
2026-05-05 11:32 51.51748 17.75172 27814 ft 387 kts 320°
2026-05-05 11:32 51.53935 17.72582 27815 ft 387 kts 320°
2026-05-05 11:32 51.56096 17.70020 27815 ft 387 kts 320°
2026-05-05 11:32 51.58264 17.67443 27816 ft 387 kts 320°
2026-05-05 11:33 51.60410 17.64890 27816 ft 387 kts 320°
2026-05-05 11:33 51.62582 17.62305 27815 ft 387 kts 320°
2026-05-05 11:33 51.64726 17.59750 27817 ft 387 kts 320°
2026-05-05 11:33 51.66898 17.57157 27815 ft 386 kts 320°
2026-05-05 11:34 51.69051 17.54583 27814 ft 386 kts 320°
2026-05-05 11:34 51.71193 17.52019 27817 ft 387 kts 320°
2026-05-05 11:34 51.73344 17.49442 27814 ft 386 kts 320°
2026-05-05 11:34 51.75509 17.46851 27815 ft 386 kts 320°
2026-05-05 11:35 51.77647 17.44285 27814 ft 386 kts 320°
2026-05-05 11:35 51.79788 17.41709 27813 ft 386 kts 320°
2026-05-05 11:35 51.81942 17.39114 27815 ft 386 kts 320°
2026-05-05 11:35 51.84102 17.36510 27811 ft 385 kts 320°
2026-05-05 11:36 51.86264 17.33905 27811 ft 386 kts 319°
2026-05-05 11:36 51.88401 17.31323 27810 ft 384 kts 319°
2026-05-05 11:36 51.90527 17.28757 27814 ft 385 kts 319°
2026-05-05 11:36 51.92661 17.26169 27813 ft 384 kts 319°
2026-05-05 11:37 51.94825 17.23542 27815 ft 384 kts 319°
2026-05-05 11:37 51.96938 17.20972 27819 ft 383 kts 319°
2026-05-05 11:37 51.99078 17.18371 27822 ft 384 kts 319°
2026-05-05 11:37 52.01203 17.15785 27824 ft 384 kts 319°
2026-05-05 11:38 52.03369 17.13150 27824 ft 384 kts 319°
2026-05-05 11:38 52.05473 17.10585 27830 ft 383 kts 319°
2026-05-05 11:38 52.07616 17.07964 27829 ft 383 kts 319°
2026-05-05 11:38 52.09753 17.05348 27839 ft 383 kts 319°
2026-05-05 11:39 52.11873 17.02753 27838 ft 383 kts 319°
2026-05-05 11:39 52.13998 17.00148 27836 ft 383 kts 319°
2026-05-05 11:39 52.16125 16.97536 27840 ft 383 kts 319°
2026-05-05 11:39 52.18236 16.94941 27841 ft 384 kts 319°
2026-05-05 11:40 52.20382 16.92301 27840 ft 384 kts 319°
2026-05-05 11:40 52.22493 16.89704 27844 ft 383 kts 319°
2026-05-05 11:40 52.24622 16.87079 27846 ft 384 kts 319°
2026-05-05 11:40 52.26752 16.84451 27848 ft 385 kts 319°
2026-05-05 11:41 52.28859 16.81846 27851 ft 384 kts 318°
2026-05-05 11:41 52.30994 16.79204 27852 ft 384 kts 319°
2026-05-05 11:41 52.33129 16.76562 27851 ft 385 kts 319°
2026-05-05 11:41 52.35247 16.73935 27851 ft 383 kts 318°
2026-05-05 11:42 52.37373 16.71296 27855 ft 383 kts 318°
2026-05-05 11:42 52.39493 16.68659 27853 ft 383 kts 318°
2026-05-05 11:42 52.41626 16.65997 27854 ft 385 kts 318°
2026-05-05 11:42 52.43752 16.63349 27850 ft 384 kts 318°
2026-05-05 11:43 52.45860 16.60715 27849 ft 383 kts 318°
2026-05-05 11:43 52.47981 16.58066 27845 ft 371 kts 318°
2026-05-05 11:43 52.49989 16.55565 27845 ft 362 kts 318°
2026-05-05 11:43 52.52008 16.53035 27665 ft 367 kts 318°
2026-05-05 11:44 52.54012 16.50514 27294 ft 367 kts 318°
2026-05-05 11:44 52.56041 16.47963 26833 ft 363 kts 317°
2026-05-05 11:44 52.58017 16.45475 26394 ft 359 kts 318°
2026-05-05 11:44 52.59997 16.42981 25948 ft 355 kts 317°
2026-05-05 11:45 52.61932 16.40543 25513 ft 352 kts 317°
2026-05-05 11:45 52.63885 16.38077 25073 ft 348 kts 317°
2026-05-05 11:45 52.65789 16.35669 24647 ft 345 kts 317°
2026-05-05 11:45 52.67672 16.33290 24221 ft 342 kts 316°
2026-05-05 11:46 52.69538 16.30928 23808 ft 339 kts 316°
2026-05-05 11:46 52.71409 16.28559 23396 ft 336 kts 316°
2026-05-05 11:46 52.73251 16.26219 22982 ft 334 kts 316°
2026-05-05 11:46 52.75056 16.23921 22577 ft 332 kts 316°
2026-05-05 11:47 52.76887 16.21589 22170 ft 329 kts 316°
2026-05-05 11:47 52.78688 16.19297 21758 ft 327 kts 316°
2026-05-05 11:47 52.80474 16.17021 21352 ft 325 kts 316°
2026-05-05 11:47 52.82251 16.14753 20947 ft 324 kts 316°
2026-05-05 11:48 52.85879 16.10104 19974 ft 333 kts 316°
2026-05-05 11:48 52.87719 16.07748 19499 ft 333 kts 316°
2026-05-05 11:48 52.89543 16.05412 19020 ft 331 kts 316°
2026-05-05 11:49 52.91342 16.03106 18547 ft 330 kts 316°
2026-05-05 11:49 52.93165 16.00764 18065 ft 328 kts 316°
2026-05-05 11:49 52.94935 15.98488 17612 ft 326 kts 316°
2026-05-05 11:49 52.96722 15.96187 17122 ft 325 kts 316°
2026-05-05 11:50 52.98511 15.93883 16655 ft 323 kts 316°
2026-05-05 11:50 53.00258 15.91631 16246 ft 320 kts 317°
2026-05-05 11:50 53.01996 15.89387 15854 ft 316 kts 317°
2026-05-05 11:50 53.03726 15.87152 15466 ft 312 kts 317°
2026-05-05 11:51 53.05425 15.84962 15055 ft 309 kts 316°
2026-05-05 11:51 53.07090 15.82786 14670 ft 305 kts 317°
2026-05-05 11:51 53.08751 15.80628 14285 ft 300 kts 317°
2026-05-05 11:51 53.10390 15.78512 13882 ft 297 kts 317°
2026-05-05 11:52 53.11996 15.76434 13496 ft 295 kts 317°
2026-05-05 11:52 53.13605 15.74339 13098 ft 293 kts 317°
2026-05-05 11:52 53.15195 15.72263 12711 ft 291 kts 317°
2026-05-05 11:52 53.16786 15.70184 12315 ft 289 kts 316°
2026-05-05 11:53 53.18356 15.68114 11923 ft 288 kts 317°
2026-05-05 11:53 53.19903 15.66071 11519 ft 286 kts 319°
2026-05-05 11:53 53.21471 15.64063 11120 ft 284 kts 319°
2026-05-05 11:53 53.23041 15.62064 10713 ft 283 kts 319°
2026-05-05 11:54 53.24601 15.60029 10309 ft 283 kts 319°
2026-05-05 11:54 53.26143 15.58027 9879 ft 283 kts 319°
2026-05-05 11:54 53.27673 15.56002 9433 ft 283 kts 318°
2026-05-05 11:54 53.29217 15.53920 8987 ft 284 kts 319°
2026-05-05 11:55 53.30632 15.51723 8544 ft 280 kts 308°
2026-05-05 11:55 53.31813 15.49135 8087 ft 277 kts 301°
2026-05-05 11:55 53.32846 15.46427 7636 ft 276 kts 300°
2026-05-05 11:55 53.33874 15.43719 7188 ft 275 kts 300°
2026-05-05 11:56 53.34902 15.41087 6747 ft 275 kts 301°
2026-05-05 11:56 53.35974 15.38398 6285 ft 274 kts 301°
2026-05-05 11:56 53.37030 15.35774 5987 ft 268 kts 302°
2026-05-05 11:56 53.38045 15.33269 5820 ft 259 kts 301°
2026-05-05 11:57 53.39063 15.30744 5419 ft 260 kts 301°
2026-05-05 11:57 53.40071 15.28233 4966 ft 262 kts 302°
2026-05-05 11:57 53.41090 15.25697 4512 ft 264 kts 302°
2026-05-05 11:57 53.42103 15.23175 4064 ft 265 kts 303°
2026-05-05 11:58 53.43152 15.20593 3602 ft 267 kts 303°
2026-05-05 11:58 53.44190 15.18027 3165 ft 267 kts 305°
2026-05-05 11:58 53.45340 15.15534 2731 ft 268 kts 309°
2026-05-05 11:58 53.46548 15.13176 2302 ft 268 kts 311°
2026-05-05 11:59 53.47787 15.10841 1874 ft 268 kts 313°
2026-05-05 11:59 53.49005 15.08535 1651 ft 259 kts 311°
2026-05-05 11:59 53.50130 15.06283 1654 ft 247 kts 311°
2026-05-05 11:59 53.51253 15.04109 1653 ft 242 kts 313°
2026-05-05 12:00 53.52323 15.02094 1664 ft 221 kts 313°
2026-05-05 12:00 53.53307 15.00186 1569 ft 208 kts 312°
2026-05-05 12:00 53.54229 14.98399 1234 ft 194 kts 312°
2026-05-05 12:00 53.55058 14.96810 991 ft 171 kts 312°
2026-05-05 12:01 53.55796 14.95384 752 ft 157 kts 312°
2026-05-05 12:01 53.56498 14.94032 547 ft 150 kts 312°
2026-05-05 12:01 53.57156 14.92759 356 ft 143 kts 312°
2026-05-05 12:01 53.57814 14.91490 160 ft 140 kts 313°
2026-05-05 12:02 53.58334 14.90494 134 ft 76 kts 311°
2026-05-05 12:02 53.58544 14.90073 132 ft 26 kts 309°
2026-05-05 12:02 53.58658 14.89862 131 ft 19 kts 323°
2026-05-05 12:02 53.58706 14.89871 131 ft 3 kts 33°
2026-05-05 12:03 53.58739 14.89909 131 ft 0 kts 38°
2026-05-05 12:04 53.58741 14.89911 131 ft 1 kts 38°
2026-05-05 12:04 53.58750 14.89924 131 ft 1 kts 39°
2026-05-05 12:04 53.58764 14.89944 131 ft 1 kts 40°
2026-05-05 12:04 53.58770 14.89952 132 ft 0 kts 40°
2026-05-05 12:05 53.58773 14.89955 132 ft 1 kts 41°
2026-05-05 12:05 53.58795 14.89985 133 ft 2 kts
2026-05-05 12:05 53.58843 14.89921 133 ft 18 kts 310°
2026-05-05 12:05 53.58934 14.89746 131 ft 20 kts 311°
2026-05-05 12:06 53.59023 14.89573 129 ft 17 kts 311°
2026-05-05 12:06 53.59089 14.89446 127 ft 13 kts 311°
2026-05-05 12:06 53.59152 14.89321 124 ft 11 kts 311°
2026-05-05 12:06 53.59199 14.89240 125 ft 7 kts 341°
2026-05-05 12:07 53.59242 14.89261 126 ft 0 kts 51°
2026-05-05 12:07 53.59250 14.89273 126 ft 5 kts 41°
2026-05-05 12:07 53.59269 14.89301 127 ft 1 kts 41°
2026-05-05 12:07 53.59277 14.89311 128 ft 3 kts 39°
2026-05-05 12:08 53.59283 14.89322 128 ft 0 kts 42°